Flag Weather past 2 weeks in Bastia, Corsica, France

Now
64 °F

Partly cloudy.


Feels Like: 64 °F
Forecast: 60 / 67 °F
Wind: 3 mph from North

Location: Bastia Airport

Current Time: Nov 22, 2014 at 5:46:08 PM

Latest Report: Nov 22, 2014 at 5:00 PM


Visibility: N/A

Pressure: 30.18 "Hg

Humidity: 83%

Dew point: 59 °F

Location of BastiaLocation

Historic Weather in Bastia — Graph

°F

Bastia temperature yesterday

Maximum temperature yesterday: 68 °F (at 11:00 AM)
Minimum temperature yesterday: 52 °F (at 12:00 AM)
Average temperature yesterday: 58 °F

Past Weeks' High & Low Weather Summary

 TemperatureHumidityPressure
High72 °F (Nov 8, 12:30 PM)100% (Nov 12, 6:00 AM)30.24 "Hg (Nov 12, 6:00 AM)
Low46 °F (Nov 18, 1:00 AM)35% (Nov 19, 12:30 PM)29.59 "Hg (Nov 15, 1:30 PM)
Average59 °F73%29.87 "Hg
* Reported Nov 7 4:00 PM — Nov 22 4:30 PM, Bastia, Weather by CustomWeather, © 2014

Note: Actual official high and low records may vary slightly from our data, if they occured in-between our weather recording intervals... More about our weather records

Advertising

Bastia weather history for previous 24 hours

 ConditionsComfort  
Time TempWeatherWind HumidityBarometerVisibility
4:30 PM
Nov 22
64 °FBroken clouds.6 mph83%30.15 "HgN/A
4:00 PM64 °FBroken clouds.3 mph83%30.18 "HgN/A
3:30 PM64 °FBroken clouds.3 mph83%30.15 "HgN/A
3:00 PM64 °FPartly sunny.6 mph83%30.15 "HgN/A
2:30 PM66 °FPartly sunny.7 mph78%30.15 "HgN/A
2:00 PM66 °FBroken clouds.7 mph78%30.15 "HgN/A
1:30 PM68 °FPartly sunny.3 mph73%30.18 "HgN/A
1:00 PM66 °FBroken clouds.2 mph73%30.18 "HgN/A
12:30 PM66 °FPartly sunny.No wind73%30.18 "HgN/A
12:00 PM66 °FPartly sunny.No wind73%30.18 "HgN/A
11:30 AM64 °FPartly sunny.2 mph73%30.18 "HgN/A
11:00 AM63 °FScattered clouds.2 mph73%30.18 "HgN/A
10:30 AM64 °FScattered clouds.No wind73%30.18 "HgN/A
10:00 AM61 °FPassing clouds.3 mph77%30.18 "HgN/A
9:30 AM59 °FPassing clouds.2 mph82%30.18 "HgN/A
9:00 AM55 °FScattered clouds.3 mph88%30.18 "HgN/A
8:30 AM54 °FScattered clouds.3 mph88%30.15 "HgN/A
8:00 AM54 °FBroken clouds.3 mph88%30.15 "HgN/A
7:30 AM52 °FPartly sunny.6 mph94%30.15 "HgN/A
7:00 AM52 °FPassing clouds.5 mph94%30.15 "HgN/A
6:30 AM52 °FPassing clouds.5 mph94%30.15 "HgN/A
6:00 AM52 °FPassing clouds.6 mph88%30.15 "HgN/A
5:30 AM52 °FPassing clouds.5 mph88%30.15 "HgN/A
5:00 AM52 °FPassing clouds.5 mph88%30.15 "HgN/A
4:00 AM52 °FPassing clouds.5 mph94%30.15 "HgN/A
3:30 AM52 °FPassing clouds.5 mph94%30.15 "HgN/A
3:00 AM52 °FPassing clouds.5 mph94%30.15 "HgN/A
2:30 AM52 °FPassing clouds.5 mph94%30.15 "HgN/A
2:00 AM54 °FClear.5 mph88%30.15 "HgN/A
1:30 AM54 °FPassing clouds.3 mph88%30.15 "HgN/A
1:00 AM54 °FPassing clouds.5 mph88%30.15 "HgN/A
12:30 AM54 °FPassing clouds.5 mph88%30.18 "HgN/A
12:00 AM54 °FPassing clouds.5 mph88%30.18 "HgN/A
11:30 PM
Nov 21
55 °FPassing clouds.3 mph88%30.18 "HgN/A
10:30 PM57 °FPassing clouds.3 mph88%30.18 "HgN/A
10:00 PM57 °FPassing clouds.5 mph82%30.18 "HgN/A
9:30 PM57 °FPassing clouds.5 mph88%30.18 "HgN/A
9:00 PM55 °FPassing clouds.3 mph94%30.18 "HgN/A
8:30 PM55 °FPassing clouds.5 mph88%30.15 "HgN/A
8:00 PM55 °FPassing clouds.3 mph88%30.15 "HgN/A
7:30 PM57 °FPassing clouds.2 mph88%30.15 "HgN/A
7:00 PM57 °FPassing clouds.3 mph82%30.15 "HgN/A
6:41 PM59 °FPartly cloudy.5 mph82%30.15 "HgN/A
6:00 PM61 °FPartly cloudy.3 mph77%30.15 "HgN/A
5:30 PM61 °FPassing clouds.2 mph83%30.15 "HgN/A
5:00 PM61 °FPassing clouds.3 mph77%30.12 "HgN/A
Weather by CustomWeather, © 2014

See weather overviewHow to use our weather pages